Home   Weather   Providence   Past weeks

Flag for USA Past Weather in Providence, Rhode Island, USA — Yesterday and Last 2 Weeks

Now
41 °F

Partly sunny.


Feels Like: 35 °F
Forecast: 20 / 40 °F
Wind: 10 mph from South

Location: Green State Airport

Current Time: Feb 21, 2017 at 4:36:45 pm

Latest Report: Feb 21, 2017 at 3:51 pm


Visibility: 10 mi

Pressure: 30.24 "Hg

Humidity: 51%

Dew Point: 24 °F

Location of ProvidenceLocation

Past Weather in Providence — Graph

°F

Providence Temperature Yesterday

Maximum temperature yesterday: 47 °F (at 12:51 pm)
Minimum temperature yesterday: 32 °F (at 11:51 pm)
Average temperature yesterday: 42 °F

High & Low Weather Summary for the Past Weeks

 TemperatureHumidityPressure
High62 °F (Feb 19, 2:51 pm)100% (Feb 8, 6:51 am)30.40 "Hg (Feb 8, 6:51 am)
Low9 °F (Feb 10, 6:51 am)24% (Feb 20, 3:51 pm)29.24 "Hg (Feb 15, 10:51 pm)
Average32 °F69%29.80 "Hg
* Reported Feb 6 2:51 pm — Feb 21 2:51 pm, Providence, Weather by CustomWeather, © 2017

Note: Actual official high and low records may vary slightly from our data, if they occured in-between our weather recording intervals... More about our weather records

Advertising

Providence Weather History for the Previous 24 Hours

Scroll right to see more
 ConditionsComfort  
Time TempWeatherWind HumidityBarometerVisibility
2:51 pm
Tue, Feb 21
43 °FBroken clouds.12 mph42%30.26 "Hg10 mi
1:51 pm44 °FBroken clouds.6 mph37%30.27 "Hg10 mi
12:51 pm44 °FBroken clouds.5 mph37%30.30 "Hg10 mi
11:51 am42 °FSunny.6 mph38%30.33 "Hg10 mi
10:51 am41 °FPartly sunny.No wind41%30.37 "Hg10 mi
9:51 am39 °FPartly sunny.6 mph46%30.37 "Hg10 mi
8:51 am36 °FPartly sunny.5 mph42%30.39 "Hg10 mi
7:51 am33 °FScattered clouds.3 mph45%30.40 "Hg10 mi
6:51 am28 °FPassing clouds.3 mph56%30.39 "Hg10 mi
5:51 am28 °FClear.5 mph53%30.38 "Hg10 mi
4:51 am29 °FClear.7 mph51%30.37 "Hg10 mi
3:51 am29 °FClear.8 mph54%30.37 "Hg10 mi
2:51 am30 °FClear.7 mph49%30.37 "Hg10 mi
1:51 am31 °FClear.6 mph47%30.36 "Hg10 mi
12:51 am31 °FClear.9 mph49%30.35 "Hg10 mi
11:51 pm
Mon, Feb 20
32 °FClear.7 mph47%30.36 "Hg10 mi
10:51 pm34 °FClear.8 mph44%30.35 "Hg10 mi
9:51 pm36 °FClear.7 mph38%30.34 "Hg10 mi
8:51 pm36 °FClear.5 mph40%30.33 "Hg10 mi
7:51 pm38 °FClear.9 mph37%30.31 "Hg10 mi
6:51 pm38 °FClear.9 mph39%30.29 "Hg10 mi
5:51 pm41 °FPassing clouds.10 mph33%30.26 "Hg10 mi
4:51 pm43 °FSunny.17 mph29%30.20 "Hg10 mi
Weather by CustomWeather, © 2017

See weather overviewHow to use our weather pages